RH
81 81 82 84 86 88 90 90 93 94 96 96 95 95 94 94 94 94 93 93 92 92 90 90 90 89 88 87 87 86 86 86 84 81 79 79 76 71 64 58 50 42 33 26 19 14 12 11 11 12 14 16 18 19 20 21 22 23 24 26 28 30 32 34 35 35 35 33 31 28 26 24 22 21 20 21 22 24 26 30 33 36 39 41 42 44
82 82 84 88 91 93 94 94 95 95 95 95 95 94 94 93 93 92 92 92 91 90 90 89 88 87 86 85 84 85 85 85 83 81 78 76 71 64 56 47 38 30 22 17 14 12 12 14 15 17 19 21 22 24 24 26 27 28 30 32 34 36 38 38 38 36 34 30 27 25 24 23 23 24 26 28 31 34 37 40 42 44 46 47 47 47
86 87 89 92 94 96 96 95 94 93 93 93 93 93 92 92 90 90 89 89 89 88 88 87 86 85 84 84 84 85 85 84 81 78 75 69 61 52 43 34 26 20 15 14 13 14 16 18 20 22 24 26 27 28 30 31 32 34 36 38 40 40 40 38 35 32 28 26 26 26 26 28 30 33 37 40 42 44 46 47 48 48 47 46 45 44
82 84 85 87 88 90 90 90 88 87 86 86 86 87 87 88 87 86 84 84 84 84 84 84 84 84 83 84 84 84 84 81 77 72 66 58 48 38 29 23 18 15 14 15 17 20 22 24 26 27 28 30 32 33 35 36 38 40 42 43 42 40 38 34 32 30 28 30 31 34 37 40 43 45 47 48 49 48 47 46 44 43 42 41 40 40
77 78 77 76 76 75 74 74 73 71 69 69 70 73 76 78 78 78 77 77 78 78 78 79 80 80 81 81 81 80 79 74 68 61 53 43 34 26 20 17 16 16 18 21 23 26 27 29 30 32 34 36 37 39 40 42 44 46 46 45 42 40 36 35 35 36 38 40 44 47 49 50 50 50 48 47 45 43 41 40 39 38 38 38 40 40
70 69 66 64 61 58 56 53 50 47 46 47 50 54 58 62 64 66 68 69 70 72 73 74 74 74 75 75 74 72 68 62 56 48 40 31 25 20 18 18 20 22 24 27 29 31 32 34 36 38 39 40 42 44 46 48 49 49 47 45 42 42 41 42 45 47 50 52 53 53 52 50 47 44 42 40 39 38 37 37 36 36 38 46 52 55
53 51 49 47 43 40 38 35 33 32 34 37 41 45 50 54 57 60 62 65 67 69 70 70 70 70 70 68 65 61 57 51 44 38 30 25 22 21 22 24 26 29 31 33 35 36 38 40 41 43 44 46 48 50 51 52 51 50 48 46 46 48 50 52 54 55 56 54 52 49 46 43 40 39 38 37 37 36 36 36 36 39 50 60 62 60
34 34 34 34 33 31 32 32 32 34 38 43 47 51 53 56 59 62 65 68 70 72 74 73 71 68 65 60 57 53 50 44 38 32 26 24 24 26 29 31 34 36 38 39 40 42 44 45 47 48 50 51 53 54 55 54 53 51 50 51 52 54 56 57 56 55 53 49 46 43 40 40 38 38 37 37 36 36 35 36 36 41 51 52 48 42
22 24 27 30 33 36 38 39 42 45 50 54 58 60 62 64 66 69 73 74 76 76 76 74 70 65 60 57 53 50 45 40 34 30 28 29 32 36 38 40 40 42 43 44 46 48 50 51 52 53 55 56 58 58 57 55 54 54 54 55 56 57 58 56 54 51 47 44 42 40 40 40 39 38 37 36 36 35 34 38 40 38 36 32 29 26
18 22 26 31 36 40 46 47 48 52 59 63 66 69 71 72 73 74 76 77 76 74 72 69 65 62 58 55 52 47 41 35 32 32 34 38 42 45 47 47 48 48 49 51 53 54 56 56 57 58 59 60 60 60 58 56 56 56 56 57 58 58 57 54 50 47 44 42 42 42 41 40 39 38 37 36 35 34 33 35 34 32 28 25 24 24
17 23 30 34 38 42 48 51 54 57 63 68 70 73 75 76 77 77 78 75 73 70 68 66 64 62 58 53 48 42 37 34 34 38 43 48 52 54 54 54 54 55 55 57 58 59 60 60 60 61 62 62 62 60 58 57 57 57 58 58 58 57 55 51 47 44 43 43 43 42 42 40 39 37 36 34 33 32 31 30 28 26 24 24 27 32
22 28 35 40 44 48 50 53 56 61 66 71 75 78 78 79 79 79 78 75 73 70 68 66 64 61 56 49 42 38 36 38 42 48 54 57 60 61 61 60 60 61 61 61 62 62 62 62 63 64 65 64 62 60 58 58 58 58 60 59 58 56 52 48 46 44 44 44 44 43 42 40 38 36 34 32 31 30 28 26 24 24 24 30 39 48
30 36 42 46 50 53 56 58 61 66 72 78 82 84 82 81 81 81 79 76 74 72 69 63 58 53 47 40 36 36 40 47 54 60 62 65 68 69 68 68 68 68 67 65 65 66 65 65 66 67 67 65 63 61 60 60 60 60 60 60 57 54 50 48 46 46 46 46 45 43 40 39 36 34 32 30 28 26 24 23 24 28 35 45 55 63
37 42 48 52 55 58 60 64 69 74 78 82 83 83 81 82 82 82 80 76 73 69 64 57 50 43 37 35 37 43 51 58 64 67 68 71 74 76 74 74 74 74 73 71 70 70 69 68 68 68 68 66 64 62 62 62 62 62 60 58 56 53 50 48 48 48 48 47 44 42 40 37 35 32 29 27 24 23 22 24 31 40 51 61 68 73
40 46 50 54 58 62 66 69 73 76 77 78 80 80 80 81 81 80 79 74 67 60 54 46 40 35 33 37 44 54 62 67 71 72 71 73 76 79 78 77 78 79 78 76 75 74 73 71 70 69 68 66 64 64 64 63 63 62 60 58 55 52 50 50 50 50 49 46 44 41 38 36 32 29 26 24 23 23 26 34 44 55 66 72 76 76
40 46 50 54 58 62 67 68 71 72 72 73 75 77 78 77 75 72 70 63 55 47 40 36 33 34 38 47 57 64 69 72 75 77 75 74 76 78 78 77 78 80 81 79 78 77 76 74 72 70 68 67 66 65 64 64 62 60 58 56 54 52 52 52 52 51 49 46 42 40 37 34 30 27 24 23 24 28 36 48 59 68 74 76 77 78
37 42 45 49 53 57 60 62 65 67 68 69 70 71 71 68 62 56 50 44 39 34 32 36 40 46 50 57 66 73 76 74 76 78 77 76 76 78 78 77 78 79 80 80 79 78 77 76 74 72 70 68 68 66 65 64 62 60 58 56 54 53 53 54 53 51 48 44 41 38 34 31 28 25 23 24 30 39 51 63 71 76 77 78 76 73
30 34 38 41 44 48 52 54 56 57 58 60 58 56 52 47 42 38 34 33 34 36 40 49 57 62 66 67 71 76 80 77 77 78 78 77 78 79 79 79 78 79 79 79 79 78 78 76 75 74 72 72 71 70 68 66 64 61 58 57 56 56 56 55 54 50 47 43 39 36 32 28 26 24 26 32 42 54 66 72 76 77 76 73 69 67
22 24 28 30 32 34 38 40 41 40 40 40 38 35 32 31 32 34 37 42 46 52 58 64 69 73 76 76 76 78 81 80 79 79 79 78 79 80 82 81 80 80 79 80 80 80 79 78 77 76 76 75 74 74 73 70 68 64 62 60 59 58 58 56 53 49 45 41 38 34 30 27 26 28 33 44 56 68 76 78 79 77 73 69 68 68
17 19 21 22 23 24 26 26 27 27 28 28 28 29 30 34 38 44 51 58 63 66 70 72 74 76 78 77 78 80 81 81 82 83 82 81 81 82 82 82 80 78 77 78 80 82 81 80 80 79 79 78 77 76 74 73 71 68 65 63 62 60 58 55 51 47 43 40 36 32 28 26 28 34 44 56 68 76 78 78 76 73 69 67 67 68
21 22 24 24 26 26 27 28 30 31 32 33 36 38 40 43 47 51 58 63 67 70 72 76 78 79 80 80 82 83 83 83 84 84 84 84 84 83 82 79 76 74 73 76 79 82 82 82 82 81 80 80 78 78 76 74 72 70 66 64 62 60 57 53 49 46 42 39 34 30 27 28 34 43 55 64 72 76 78 76 72 69 66 67 68 68
27 28 30 31 32 32 33 34 36 36 37 37 39 40 42 45 48 52 57 62 66 69 72 77 80 81 82 83 84 84 84 84 84 85 85 84 84 83 81 79 76 76 76 78 80 82 83 83 83 82 82 80 80 79 78 76 73 70 67 64 61 58 55 51 48 45 42 38 34 30 28 32 40 52 62 68 71 72 72 69 67 66 65 66 68 69
28 28 28 29 30 31 31 32 32 32 32 33 34 36 38 42 46 50 53 58 62 64 67 71 77 82 84 84 84 84 85 85 85 85 84 84 84 83 82 81 81 81 81 82 83 83 83 83 84 84 83 82 81 80 78 76 74 70 66 63 60 56 52 49 47 44 42 38 34 32 32 38 48 58 67 70 70 68 66 64 64 63 63 64 66 68
22 22 22 23 24 25 26 26 27 28 29 30 31 32 33 38 42 44 48 52 56 59 62 69 76 82 84 84 84 84 84 84 84 83 83 84 83 82 80 82 84 85 84 83 82 82 81 81 81 82 83 82 82 80 79 76 73 70 65 62 58 54 51 48 46 44 41 38 35 34 36 43 53 62 69 70 69 67 65 63 62 62 62 63 65 66
18 19 20 21 23 24 26 28 30 31 32 34 34 36 38 40 42 44 47 49 52 56 62 68 74 78 81 82 83 83 83 82 82 82 82 81 78 76 76 77 80 83 84 82 80 79 78 79 80 81 82 83 82 80 78 76 73 70 65 61 58 54 50 48 46 43 40 38 36 36 40 48 57 65 70 70 68 66 64 63 62 61 61 62 64 65
19 21 23 24 26 29 31 33 35 37 38 40 40 42 42 43 44 45 46 48 51 55 60 64 69 74 77 80 82 83 82 82 82 82 82 82 80 77 74 74 76 80 81 80 79 79 80 80 82 83 84 84 82 80 78 76 73 70 66 62 58 54 50 48 45 43 40 39 38 39 43 52 60 67 70 70 69 67 65 63 62 61 61 61 62 63
24 26 28 30 32 34 36 38 39 40 42 43 44 45 46 47 48 48 50 52 54 58 61 64 67 71 74 77 80 82 83 82 81 80 78 78 77 76 74 74 75 78 80 80 81 82 82 83 84 84 84 84 82 80 78 76 73 71 68 63 58 54 50 48 45 42 40 39 39 42 47 56 63 68 71 71 70 68 66 64 62 62 61 60 60 61
28 30 32 33 35 36 38 39 41 42 44 45 46 48 49 50 52 54 56 59 62 65 67 70 72 74 76 78 79 81 82 80 77 74 74 76 77 79 79 77 78 79 82 82 83 83 84 84 84 84 84 84 82 80 78 76 74 72 69 64 59 54 50 47 44 42 40 40 40 44 51 58 65 70 72 72 70 68 66 64 63 62 61 60 60 60
31 33 34 35 36 38 39 40 42 44 45 47 49 51 53 56 60 63 66 69 71 73 76 77 78 80 81 81 81 81 82 80 78 76 77 80 82 83 83 82 82 82 83 84 83 83 83 83 83 84 84 84 82 80 78 76 74 72 69 64 58 54 50 46 43 41 40 40 43 48 55 62 68 71 72 71 69 67 65 64 63 62 61 60 58 58
33 34 36 37 38 40 42 43 45 47 49 52 55 58 62 65 69 72 75 76 78 79 80 81 82 83 83 83 83 83 82 81 80 80 81 82 82 82 83 83 83 83 84 84 84 82 80 78 80 81 83 84 83 81 79 76 74 72 68 62 57 52 48 45 42 40 40 42 47 53 60 66 70 72 71 70 68 66 64 63 62 61 60 58 58 56
35 36 38 40 42 43 45 47 50 53 56 60 63 66 70 72 74 76 78 78 79 80 81 82 83 83 83 83 84 83 82 81 81 82 83 82 82 82 83 83 83 84 84 83 81 78 74 74 75 77 80 81 82 81 79 76 74 70 65 60 55 50 46 43 41 40 40 45 52 58 66 70 72 72 70 68 66 64 63 62 61 60 58 57 55 54
37 39 41 43 45 48 50 54 57 61 64 68 70 72 74 74 74 74 74 75 76 77 78 79 80 80 80 80 80 80 80 80 81 82 83 83 83 83 83 83 83 83 80 78 76 74 72 70 71 73 74 77 78 78 77 74 71 66 61 56 51 47 44 42 40 40 42 50 58 65 70 73 73 72 69 66 64 63 62 61 60 58 56 54 52 50
42 43 46 48 51 54 57 61 65 68 71 73 74 74 72 72 71 71 71 72 74 76 76 77 77 78 78 78 78 79 79 80 82 82 83 83 83 83 82 82 80 79 76 74 73 72 72 71 70 70 70 72 73 74 73 70 66 60 56 51 47 44 42 40 40 41 46 55 63 70 74 74 73 71 68 66 64 62 61 60 58 56 54 50 48 45
46 49 52 54 58 61 65 69 72 74 74 74 73 72 70 70 70 70 72 73 74 76 76 76 76 76 76 76 77 78 80 82 82 83 83 83 83 82 82 81 80 78 77 76 76 75 74 73 72 70 69 70 69 68 67 63 59 54 50 46 44 42 40 40 40 43 50 60 68 73 74 74 72 70 67 65 63 61 60 59 57 54 51 47 44 42
52 55 58 61 65 68 72 74 76 76 75 73 72 70 70 71 72 73 73 73 73 73 72 71 70 69 69 70 71 72 74 76 76 78 79 80 80 80 80 80 80 79 79 78 77 76 74 74 73 72 70 69 66 63 60 56 52 49 46 44 43 42 40 40 42 47 56 65 70 74 74 72 70 68 66 64 62 61 60 57 54 50 47 44 42 42
58 61 64 68 70 73 76 76 76 76 74 72 72 72 72 73 73 73 72 70 67 65 62 61 60 59 58 58 58 58 60 60 62 64 66 68 70 72 74 75 76 75 76 74 74 73 72 71 70 69 67 64 60 57 54 50 48 46 44 44 44 43 42 42 47 54 62 68 72 73 72 70 68 66 63 62 60 58 56 52 49 46 43 42 42 42
64 66 69 71 73 75 76 76 74 73 71 72 72 72 72 72 70 68 65 62 58 55 53 51 50 50 49 48 47 47 47 47 48 50 53 56 58 62 65 67 68 68 69 69 68 67 66 65 64 62 60 57 54 52 49 47 46 46 46 46 46 46 46 49 55 62 68 72 72 72 70 67 65 63 61 60 57 54 50 46 43 42 42 42 44 46
68 70 71 72 74 74 74 74 72 70 69 70 71 71 70 67 64 62 58 55 52 50 48 47 46 46 46 45 44 44 43 43 43 44 46 48 51 54 57 58 60 60 61 62 62 61 60 59 58 56 54 52 50 48 47 46 46 47 48 49 50 52 54 59 64 70 73 73 72 70 68 65 63 60 58 55 51 47 42 40 40 40 42 44 48 52
70 71 70 70 71 71 71 70 68 67 67 69 70 70 69 65 62 59 56 53 51 49 48 48 47 47 46 46 45 44 44 44 44 44 44 46 48 50 52 54 54 55 56 56 56 55 54 54 52 52 50 49 48 47 47 48 49 51 52 55 59 64 68 71 73 74 74 73 71 69 66 63 60 56 52 47 42 38 36 37 39 42 45 50 55 59
70 68 67 67 67 66 66 65 65 65 67 69 70 71 70 66 63 60 57 54 52 50 50 49 48 48 47 46 45 44 44 44 45 45 46 47 49 51 52 53 54 54 53 52 52 51 50 50 49 48 48 48 48 49 51 54 56 57 59 64 70 74 77 77 77 76 74 71 69 66 62 58 53 48 42 38 35 33 34 36 40 45 50 56 61 65
67 66 64 64 63 62 60 61 62 66 70 73 73 73 71 69 66 64 60 58 55 53 52 51 50 48 46 45 45 45 46 47 47 48 48 50 52 54 55 55 55 55 54 53 52 50 50 50 50 50 50 51 53 56 59 62 64 66 70 74 77 79 80 78 76 74 71 68 64 60 55 49 44 39 36 33 32 32 35 38 43 50 56 61 66 69
64 63 63 63 63 62 62 62 65 69 75 77 76 74 72 70 68 66 63 60 58 56 54 52 50 48 47 47 47 48 50 51 51 52 52 54 55 56 57 57 56 56 56 55 54 54 53 54 55 56 58 60 64 67 70 73 74 76 77 78 78 78 78 76 73 70 67 63 58 52 45 40 38 35 32 32 32 34 38 42 48 54 60 64 68 71
64 64 66 67 68 68 68 69 71 74 78 78 76 73 71 70 69 67 64 60 58 56 54 52 50 48 48 49 50 52 54 56 56 55 56 57 58 58 58 58 58 59 59 60 60 60 60 60 62 64 67 70 73 76 78 79 80 79 78 77 76 74 72 70 67 64 60 55 48 42 38 36 36 35 34 33 35 38 42 47 52 58 62 66 69 72
66 69 72 74 74 75 74 75 76 77 78 76 74 72 70 70 70 68 64 60 58 56 53 51 49 49 50 51 52 54 57 58 58 58 57 58 59 60 62 63 64 66 66 67 68 68 68 68 70 72 75 77 78 80 81 81 80 79 77 76 73 71 68 65 62 58 53 46 41 37 36 36 37 37 36 36 38 41 45 50 56 60 64 67 70 74
70 74 77 78 79 78 77 77 77 76 74 73 72 71 71 71 70 68 64 60 58 55 53 51 50 51 52 52 53 54 57 58 58 58 57 59 62 65 68 70 71 72 73 74 74 74 74 75 76 78 79 80 81 80 80 79 78 77 76 74 72 68 65 61 56 51 46 41 38 36 37 38 39 39 39 40 42 45 50 55 60 64 68 71 74 76
70 73 76 77 77 76 76 76 74 73 72 71 70 70 71 71 70 68 64 60 58 55 53 52 52 52 53 54 54 54 56 57 57 57 58 61 66 70 73 74 75 76 76 77 77 77 77 78 80 81 82 82 81 79 78 77 76 76 74 72 68 65 60 55 49 44 40 37 36 36 37 39 40 42 43 45 48 52 56 61 66 70 73 75 77 79
66 68 71 72 72 72 73 73 73 72 72 71 70 69 70 69 68 66 62 60 58 56 54 53 53 54 54 54 54 54 55 56 56 56 58 64 70 74 76 77 78 78 79 80 80 80 80 81 82 82 81 80 78 77 77 77 76 74 71 68 63 59 54 48 44 40 36 36 35 36 37 39 42 46 50 53 56 60 63 68 72 74 77 78 80 82
61 64 66 68 70 70 72 72 73 73 73 71 70 69 68 68 66 64 62 60 58 56 55 54 54 54 54 54 54 54 54 55 55 57 61 67 72 76 78 79 80 80 81 81 81 81 81 81 81 81 80 79 78 78 78 77 75 72 67 62 58 53 48 44 40 38 37 37 36 36 38 41 46 51 57 61 64 67 70 74 76 78 79 81 82 83
61 63 67 69 71 73 74 74 74 74 73 72 70 69 69 68 66 65 63 60 58 57 55 54 54 54 55 55 55 54 54 54 55 58 64 69 73 76 78 79 80 81 82 81 80 78 78 78 79 80 79 79 79 79 79 77 73 68 62 56 52 48 44 42 40 39 39 38 38 40 42 47 53 59 65 68 70 73 76 77 79 80 81 82 83 84
63 65 68 71 72 73 74 73 73 72 72 71 70 70 70 69 68 66 64 61 58 57 56 55 55 55 56 56 55 55 54 54 55 58 66 70 73 74 76 77 79 80 81 80 79 78 76 76 76 78 78 79 79 80 78 74 68 62 56 51 48 45 43 42 42 40 40 40 42 44 49 55 60 66 72 74 76 77 79 80 82 82 83 84 84 84
65 67 69 70 70 70 70 70 70 71 71 71 71 70 70 69 67 65 62 60 58 58 57 56 57 57 57 57 56 55 54 53 55 60 67 70 72 72 73 76 77 79 80 81 81 80 79 78 77 77 76 78 78 78 76 69 62 56 50 47 45 44 44 44 44 44 44 45 47 51 56 62 67 72 76 77 79 80 82 83 84 84 85 85 85 85
Wind_Speed
56 55 54 53 53 54 54 54 54 54 54 53 53 52 52 51 49 49 48 48 48 48 49 49 50 50 50 50 50 50 51 52 53 55 57 58 59 60 61 61 61 61 60 59 57 56 54 52 51 50 48 47 45 43 42 42 41 40 40 39 38 37 36 35 35 35 35 34 34 33 32 31 31 31 31 31 32 32 33 33 34 34 34 35 35 35
54 53 52 52 52 52 52 53 52 52 51 51 51 50 50 49 49 48 48 48 48 49 49 50 50 50 51 51 51 52 52 53 55 56 58 59 60 60 61 60 60 59 57 56 54 52 50 49 48 47 45 43 42 40 40 39 39 38 37 36 35 34 33 33 33 33 33 32 32 31 31 30 30 30 31 31 32 32 33 33 34 34 34 35 35 35
52 51 51 51 51 51 51 51 52 51 51 50 50 49 49 49 49 49 49 49 49 49 50 50 51 51 52 52 52 53 53 55 56 58 59 60 60 60 59 58 57 55 54 52 50 48 47 46 44 43 41 40 38 38 37 37 36 35 34 33 32 32 31 31 31 31 31 30 30 30 30 30 30 30 31 32 32 33 33 34 34 34 34 34 34 34
51 51 52 52 52 51 51 51 51 52 51 50 50 49 49 49 49 49 50 50 50 51 51 51 51 52 53 53 53 54 54 56 57 58 59 59 59 58 57 55 54 52 50 48 47 45 44 42 41 39 38 37 36 35 35 34 33 32 31 31 30 30 30 29 29 29 29 29 29 29 29 30 31 31 32 32 32 33 33 33 33 33 33 33 33 33
51 51 52 53 53 52 52 52 51 51 51 50 50 49 49 49 50 50 51 51 51 51 52 52 52 53 53 54 54 54 55 56 57 58 58 58 57 56 54 52 50 48 46 44 43 42 40 39 37 36 34 34 33 33 32 31 30 30 29 29 29 29 28 28 28 28 28 28 28 29 30 30 31 31 32 32 33 33 33 33 33 32 32 32 32 32
50 51 52 52 52 52 52 52 52 51 51 50 50 50 50 50 51 51 51 52 52 52 53 53 54 54 54 55 55 55 56 57 57 57 57 56 54 53 51 48 46 44 42 41 39 38 36 35 34 33 32 31 31 30 29 28 28 28 28 28 28 28 27 27 27 27 27 28 28 29 30 30 31 32 32 33 33 33 33 33 32 31 31 31 31 32
49 50 50 51 51 52 52 52 53 52 52 51 51 51 51 51 51 52 52 53 53 53 54 55 55 56 56 56 57 57 57 57 57 56 55 54 52 49 47 44 42 40 39 37 36 35 33 32 31 30 30 29 28 28 27 27 27 27 27 27 27 27 27 27 27 27 27 28 28 29 30 31 31 32 32 33 33 33 33 32 32 30 30 30 31 32
50 50 51 51 52 52 53 53 54 54 53 53 52 52 52 53 53 53 53 54 54 55 55 56 57 57 58 58 58 58 58 58 57 56 54 51 48 45 43 40 38 37 35 34 33 32 30 29 29 28 28 27 26 26 26 26 26 26 26 26 26 26 26 27 27 27 27 28 28 29 30 31 32 33 33 33 34 33 33 32 31 30 29 29 29 29
50 51 52 52 52 52 53 54 54 54 54 53 53 53 53 54 54 54 54 55 55 56 57 58 58 59 59 58 58 58 58 58 56 53 50 47 44 41 38 36 35 34 33 31 30 29 28 28 27 27 26 25 25 25 25 25 26 26 26 26 26 26 26 26 26 26 27 27 28 30 31 32 33 34 34 34 34 33 33 31 31 30 29 28 27 27
52 52 52 53 53 53 53 53 54 54 54 53 54 54 54 54 55 56 56 57 57 58 58 59 59 59 59 59 59 58 57 56 53 50 45 41 38 36 34 33 32 31 30 29 28 27 26 26 26 25 25 24 24 24 25 25 25 25 25 25 25 25 25 25 26 26 27 28 29 30 32 33 34 34 34 34 34 33 32 30 29 28 27 26 25 25
53 53 53 53 54 54 53 53 53 54 54 53 54 55 55 55 56 57 58 59 59 60 60 60 60 60 60 59 58 57 54 51 48 45 40 36 33 32 31 30 29 28 27 27 26 25 25 25 25 24 24 23 24 24 24 24 24 24 24 24 24 25 25 25 25 26 27 28 30 31 32 34 34 34 34 34 33 32 30 29 27 26 25 24 23 23
53 53 53 53 53 53 53 53 53 53 53 53 54 55 57 57 58 58 59 61 61 61 61 61 61 60 59 58 57 54 50 45 41 38 35 32 29 28 28 27 27 26 25 25 25 24 24 24 24 23 23 23 24 24 24 24 24 24 24 24 24 24 24 25 26 27 28 29 31 32 33 34 34 34 33 32 31 29 28 26 25 23 23 22 21 21
53 53 53 54 53 53 53 53 53 53 53 53 54 55 57 58 59 59 60 61 62 62 62 62 61 60 59 56 53 49 44 40 36 32 30 28 26 25 25 25 25 25 24 24 24 23 23 23 23 23 23 23 23 24 23 23 23 23 23 23 24 24 24 25 26 27 29 31 32 34 34 35 34 33 32 30 28 26 25 23 22 22 21 20 20 20
53 53 53 53 53 53 53 53 53 53 53 54 55 56 57 58 59 60 61 61 62 62 62 61 61 60 57 53 48 43 38 35 32 29 27 25 23 22 22 23 24 23 23 23 24 23 23 23 23 23 23 23 23 23 23 22 23 23 23 23 24 24 25 26 27 28 30 32 33 34 35 35 34 32 30 28 26 24 22 22 21 20 20 19 19 19
52 52 52 52 52 52 52 52 53 53 54 55 55 56 58 59 60 60 61 62 62 62 61 60 60 57 53 47 42 37 34 32 29 27 25 24 22 21 20 22 22 22 22 23 23 23 23 23 23 22 22 22 22 22 22 22 22 23 23 23 24 24 25 26 28 29 31 33 34 35 35 34 33 31 28 26 23 22 21 20 20 19 19 19 19 19
52 52 52 52 52 52 52 52 53 54 55 55 56 57 58 59 60 61 61 61 61 61 59 57 55 53 49 43 37 33 30 30 28 25 23 23 22 21 20 21 22 22 22 23 23 24 23 22 22 21 21 21 21 21 21 22 22 23 23 24 24 25 26 27 28 30 31 33 34 35 34 33 31 29 26 24 22 21 20 20 19 19 18 19 19 19
52 52 52 52 53 53 53 53 54 55 56 56 57 58 59 59 60 60 60 60 59 58 55 53 49 46 44 40 36 31 28 27 27 25 22 22 22 21 20 21 22 22 23 23 23 23 23 22 21 20 20 20 20 21 21 22 22 23 23 24 25 25 26 27 29 30 31 33 34 34 33 31 29 26 24 22 21 20 19 19 19 18 19 19 20 20
53 53 53 53 53 53 54 54 55 55 56 57 57 58 59 59 59 58 58 57 55 53 50 47 44 41 38 36 34 31 28 26 25 24 22 22 22 21 21 21 22 23 23 23 23 23 22 21 20 19 19 20 21 21 22 23 23 23 24 24 25 26 26 27 29 30 31 32 33 32 31 29 27 24 22 21 20 19 19 19 19 19 21 21 21 21
52 52 52 52 53 53 54 54 54 54 55 56 56 56 56 56 56 55 54 52 50 48 46 43 40 38 35 33 32 31 28 26 25 24 23 23 22 21 21 22 23 24 24 24 24 23 22 21 20 20 20 21 22 23 23 24 24 24 24 25 25 26 26 27 28 29 31 31 31 31 29 27 24 22 20 19 19 18 18 19 20 21 22 22 22 22
51 51 51 51 51 52 52 52 53 53 53 53 53 53 53 52 52 50 49 48 46 45 43 41 38 36 34 32 31 30 28 26 25 24 25 24 23 23 23 24 25 27 27 26 25 24 23 22 22 22 22 23 24 25 25 25 24 24 24 24 25 26 26 27 28 29 30 30 30 29 27 25 22 20 19 18 18 18 18 20 21 21 21 22 22 22
49 49 49 48 48 49 49 50 50 50 50 50 50 50 50 49 49 48 47 45 44 43 42 39 36 33 32 32 30 28 26 24 24 25 25 25 24 23 24 25 27 28 29 29 28 26 25 24 24 24 25 26 27 27 27 26 25 24 24 24 25 25 26 27 28 29 29 30 29 27 25 23 21 19 18 18 18 19 19 20 21 21 22 22 22 22
45 46 46 46 46 46 47 48 48 48 48 48 48 48 48 47 47 46 45 44 43 42 41 37 34 32 30 29 28 27 25 24 24 25 26 26 26 26 26 26 27 28 29 30 29 28 27 26 26 26 27 28 28 28 28 26 25 24 24 24 25 25 26 26 27 28 29 29 28 26 23 21 19 18 18 18 19 20 21 21 21 21 22 22 22 22
43 44 45 45 45 45 45 46 47 47 47 47 46 46 46 45 45 44 44 43 43 41 39 36 33 31 29 28 27 26 25 26 27 29 31 32 33 32 30 29 28 29 29 30 29 28 27 27 27 27 28 29 29 28 27 26 24 24 24 24 25 25 26 26 27 28 28 28 26 24 22 20 18 18 18 19 20 20 21 21 21 22 22 22 22 22
43 43 44 44 44 44 45 45 45 46 46 45 45 44 44 43 42 42 41 41 40 39 37 34 32 31 30 30 29 29 29 29 31 33 35 37 38 37 35 33 31 31 30 29 28 28 27 26 26 27 27 27 27 26 26 25 24 24 24 24 25 25 26 26 27 28 28 27 25 23 20 19 18 18 19 19 20 21 21 22 22 22 22 23 23 23
43 43 43 43 43 43 43 43 43 43 43 43 42 42 41 40 39 38 38 37 36 35 34 33 32 32 33 33 33 33 33 33 34 35 36 37 37 38 37 35 33 32 31 29 28 26 25 25 25 25 25 25 25 25 24 24 23 23 24 24 25 25 26 26 27 27 27 26 24 21 19 18 18 18 19 20 21 22 22 23 23 23 23 22 22 22
42 42 42 42 41 41 40 40 39 39 39 38 38 38 37 36 36 35 34 33 32 31 31 31 31 32 32 32 33 34 35 36 37 37 36 36 36 36 36 34 33 32 31 28 26 24 23 23 23 23 23 23 24 23 23 23 23 23 24 24 25 25 26 26 27 27 27 25 22 20 18 17 18 18 20 21 22 23 23 23 23 23 22 22 21 21
41 40 40 39 39 38 37 36 35 35 34 33 33 33 33 32 32 31 30 29 28 28 28 28 28 28 28 28 29 31 33 35 36 36 35 35 35 35 34 32 31 30 28 25 23 22 22 22 22 22 22 22 23 23 23 22 23 23 24 24 25 25 26 26 27 27 26 24 21 19 17 17 18 19 20 21 22 23 24 24 24 23 22 21 20 20
38 38 37 36 36 35 34 33 31 30 29 29 28 28 28 28 27 27 26 25 24 23 23 22 22 22 23 23 24 25 27 29 30 30 29 29 30 31 30 29 27 25 24 22 21 21 22 22 22 22 22 22 22 22 22 22 22 23 23 24 25 25 26 26 27 27 25 22 20 18 17 17 18 19 20 21 22 23 24 24 23 22 21 20 20 19
36 35 34 33 32 31 30 29 28 26 25 24 24 23 23 23 22 21 21 21 20 19 18 18 17 18 18 19 19 21 22 24 24 23 22 22 23 23 23 23 22 21 21 20 21 22 22 23 22 22 21 21 21 21 21 21 22 22 23 24 24 25 26 27 27 26 24 21 18 17 16 17 18 19 20 21 22 23 23 23 23 22 21 20 19 19
33 32 31 30 29 27 26 25 23 22 21 20 19 19 19 18 18 17 17 16 16 15 15 15 15 15 16 16 17 18 19 19 19 18 17 16 16 17 17 18 19 19 20 21 22 23 23 22 21 20 20 19 20 20 21 21 22 22 23 23 24 25 26 26 26 25 22 19 17 16 16 17 18 19 20 22 22 23 23 22 22 21 20 20 19 19
31 29 28 26 25 24 22 20 19 18 17 16 15 15 15 15 15 14 14 14 13 13 13 13 14 14 14 15 15 16 16 16 16 15 14 14 15 16 17 17 18 20 21 22 23 23 22 21 20 19 18 19 19 20 20 21 21 22 22 23 24 25 26 26 25 23 20 18 16 16 16 17 18 20 21 22 22 23 22 22 22 21 20 20 19 18
28 27 25 23 21 20 18 17 15 14 14 13 13 12 12 12 13 12 12 12 12 12 13 13 13 14 14 14 14 14 15 15 15 14 14 14 16 17 18 19 20 21 22 22 22 22 21 20 19 18 18 18 18 19 20 20 21 22 22 23 24 25 25 25 24 21 18 16 15 16 16 17 19 20 21 22 22 23 23 22 22 21 21 20 19 18
25 23 22 20 18 17 15 14 13 12 11 11 11 11 11 11 11 12 12 12 12 12 13 13 13 13 13 14 14 14 14 14 14 14 14 15 16 17 18 19 19 20 20 20 20 20 19 19 18 18 17 17 18 18 19 19 20 21 22 23 24 25 25 24 22 19 16 15 14 15 16 17 19 20 21 22 23 23 23 23 22 21 21 20 20 19
22 20 19 17 16 14 13 12 11 10 10 10 10 10 11 11 11 12 12 12 12 12 12 12 12 13 13 13 14 14 14 14 15 15 15 15 15 16 16 16 17 17 17 18 18 18 17 17 17 17 17 17 17 18 18 19 20 21 22 24 25 25 24 22 19 16 14 13 14 15 16 17 18 20 21 22 23 23 23 23 22 21 21 20 20 19
18 17 16 15 13 12 11 10 9 9 9 9 10 10 11 11 11 12 12 12 12 12 12 12 13 13 13 14 14 15 15 15 15 15 15 15 15 15 15 15 15 15 15 16 16 16 16 16 16 16 16 17 17 18 18 19 20 22 23 24 24 24 22 20 17 15 13 13 13 15 16 17 18 20 21 22 23 23 23 22 21 20 20 20 19 19
16 14 13 12 11 10 9 8 8 8 8 9 9 10 10 10 11 11 11 11 12 12 12 13 13 14 14 15 15 15 16 16 16 16 16 16 16 16 16 16 16 16 16 16 16 16 16 16 16 16 17 17 18 18 19 20 21 22 22 23 22 21 20 18 16 14 13 13 14 15 16 18 19 20 21 22 23 22 22 21 20 19 18 18 18 18
13 12 11 10 8 7 6 6 6 7 8 8 9 10 10 10 10 11 11 12 12 12 13 13 14 15 15 16 17 17 17 18 18 18 18 18 17 17 17 17 17 17 17 17 17 17 17 17 17 17 17 18 19 19 20 20 21 21 21 20 19 19 17 16 14 14 14 14 15 16 17 19 20 21 22 22 22 21 20 19 18 17 17 17 17 17
11 10 9 7 6 5 5 5 6 7 8 9 9 10 10 10 11 11 12 12 13 13 14 14 15 16 17 18 19 19 20 20 20 19 19 18 18 17 17 17 17 17 17 17 17 17 17 17 17 18 18 18 19 20 20 20 20 19 18 17 16 15 15 14 14 14 14 15 16 17 18 20 21 21 21 21 20 19 18 17 16 15 15 14 14 14
9 8 7 6 5 4 4 5 6 7 8 9 10 10 11 11 11 12 13 13 14 15 16 17 17 18 19 20 21 21 21 21 21 20 19 19 18 17 17 16 16 16 16 16 17 17 17 17 17 18 18 18 18 18 19 18 17 16 14 13 12 12 13 13 14 14 15 16 17 18 19 20 20 21 21 20 19 18 17 15 14 13 12 11 11 11
9 8 7 5 5 5 5 6 6 8 9 9 10 11 11 12 12 13 14 15 16 17 18 19 20 21 22 23 23 23 23 22 22 21 20 19 18 17 17 16 16 16 16 16 16 16 16 16 16 17 17 17 16 16 16 15 14 12 11 10 10 10 11 13 14 14 15 16 17 18 18 19 19 19 19 19 18 17 16 14 12 11 10 9 8 7
8 8 7 6 6 6 6 7 7 8 9 9 10 11 12 12 13 13 14 15 17 18 19 20 22 23 24 25 25 25 24 23 22 20 19 18 17 17 16 16 16 15 15 15 14 14 14 14 14 15 15 14 14 13 12 11 11 10 9 9 9 10 11 12 13 14 15 16 16 17 17 18 18 18 18 18 17 16 14 13 11 9 8 7 7 6
8 8 7 7 7 8 8 8 9 9 9 10 10 11 11 12 13 14 15 16 17 18 20 21 22 24 25 25 25 25 24 22 21 19 18 17 17 16 16 16 15 14 14 13 13 13 12 12 12 12 11 11 10 10 9 9 9 9 9 9 9 9 10 11 12 13 14 15 16 16 16 17 17 17 17 17 16 15 13 12 10 9 7 7 6 6
8 8 8 8 9 9 9 10 10 10 10 10 11 11 12 13 14 15 15 16 18 19 20 22 23 24 25 25 24 23 21 20 19 18 17 16 16 16 16 15 14 13 12 11 11 10 10 10 9 9 9 9 8 8 7 7 8 8 9 9 10 10 10 11 12 13 14 14 15 15 15 16 16 16 16 16 15 14 13 11 10 8 8 7 7 6
8 8 9 9 9 9 10 10 10 10 10 11 11 12 13 14 15 16 16 17 19 20 21 23 24 25 25 25 23 21 19 18 17 16 16 16 16 16 16 14 13 12 10 9 9 8 8 8 8 8 8 8 8 7 7 7 8 9 10 10 11 11 11 12 12 12 13 14 14 14 15 15 15 16 16 16 15 14 12 11 10 9 8 8 8 7
7 8 8 9 9 9 9 9 10 10 11 12 12 13 14 15 16 17 17 18 20 21 22 24 25 26 25 24 21 18 16 15 15 15 15 15 16 15 14 12 11 10 9 9 9 8 8 7 7 7 7 8 8 8 8 8 9 10 10 11 12 12 12 12 12 13 13 13 13 14 14 14 14 15 15 15 14 13 12 11 10 10 9 9 9 8
7 7 8 8 8 9 9 10 10 11 12 13 14 14 15 16 17 18 19 20 21 22 23 25 26 26 25 23 20 17 14 13 13 14 14 14 14 13 11 11 10 10 10 10 9 9 8 7 7 6 7 8 8 9 9 9 10 11 11 12 12 12 12 13 13 13 13 12 12 13 13 13 13 13 13 13 13 12 12 11 11 10 10 10 9 9
6 7 8 8 9 10 10 11 12 13 13 14 15 16 16 17 18 19 20 21 22 23 24 25 26 25 24 22 19 16 14 12 12 13 13 12 11 10 9 9 10 10 10 10 9 9 8 8 7 7 7 8 9 10 11 11 12 12 12 12 12 12 12 13 13 13 13 13 12 12 12 11 11 11 12 12 12 12 12 11 11 11 10 10 10 9
7 8 9 10 11 12 12 13 14 14 15 15 16 17 18 18 19 20 21 22 23 24 25 25 25 25 23 21 18 15 13 12 12 12 11 10 8 8 8 8 9 9 9 9 9 9 8 8 8 8 8 9 10 12 13 13 13 13 13 13 13 12 12 13 13 13 13 13 13 12 12 12 11 11 11 11 12 12 12 12 12 11 11 10 10 10
8 9 10 11 12 13 13 14 15 15 16 16 17 18 18 19 20 21 22 23 24 25 25 25 25 24 22 19 16 14 12 11 11 11 10 8 6 5 6 7 8 9 9 9 9 9 9 8 8 9 9 10 11 12 13 14 14 13 13 13 13 12 12 13 13 13 13 13 13 13 13 13 12 12 11 11 12 12 12 12 12 11 11 11 11 12
9 10 11 12 13 13 14 14 15 16 16 17 18 19 19 20 21 22 23 24 25 25 26 25 24 23 21 18 15 13 11 10 10 10 8 6 4 4 5 6 8 9 10 10 10 10 10 10 10 10 10 11 12 13 13 13 13 13 13 13 12 12 13 13 13 13 13 13 13 13 13 13 12 12 11 12 11 12 12 12 11 11 11 11 12 13
10 10 11 12 13 14 14 15 16 16 17 18 19 19 20 21 22 23 23 24 25 25 25 25 23 22 20 17 14 12 11 10 9 8 7 6 4 3 5 7 9 10 11 11 11 12 12 13 13 12 11 12 12 13 13 13 13 12 12 12 12 12 12 12 13 13 14 14 14 14 14 13 13 12 11 11 11 11 11 11 11 11 11 12 13 14
Wind_Direction
290 291 292 293 294 294 294 294 294 294 294 295 295 296 297 297 297 297 297 297 297 297 297 297 297 297 297 298 299 300 301 302 302 301 301 301 301 301 301 301 301 301 301 301 301 301 301 300 299 298 298 297 296 295 293 292 291 291 290 291 291 291 292 293 293 294 294 294 294 294 294 293 293 292 292 292 292 292 292 292 292 291 291 291 290 289
290 291 292 293 293 294 294 294 294 294 295 295 295 295 295 295 295 295 295 295 295 295 295 296 296 297 297 298 299 300 301 301 301 300 300 300 300 300 301 301 301 301 301 301 301 301 300 299 298 298 297 296 295 293 292 291 291 291 291 291 292 293 294 295 295 296 295 295 295 295 295 295 294 294 294 294 293 293 293 293 292 292 291 291 290 289
289 290 291 292 292 293 294 294 295 295 295 295 295 295 295 294 294 294 294 294 294 294 295 295 296 297 297 298 299 300 300 300 300 300 300 300 300 300 301 301 301 302 302 301 301 300 299 298 297 297 296 295 293 292 291 291 291 292 292 294 294 295 296 296 296 296 296 296 296 296 296 296 295 295 295 295 295 294 294 294 293 293 292 292 291 290
290 290 290 291 291 291 292 293 293 293 294 294 294 294 294 294 294 293 293 294 294 294 295 295 296 297 297 298 299 299 299 299 299 299 300 300 301 301 302 302 302 302 302 301 300 299 298 297 296 296 295 293 292 291 291 291 292 293 294 295 296 297 297 297 296 296 296 296 296 296 296 297 297 297 297 297 296 296 295 295 294 294 294 293 293 291
292 291 291 291 291 291 292 292 292 292 292 293 293 293 294 294 293 293 293 293 294 294 295 295 296 296 297 297 298 298 299 299 299 300 301 302 302 303 303 303 303 303 302 300 299 298 297 296 295 294 293 292 291 290 291 292 293 294 295 296 296 297 297 296 296 296 296 297 297 298 298 298 299 299 299 298 298 298 297 297 296 296 296 295 294 293
293 293 293 293 292 292 293 292 292 292 292 293 293 294 294 294 294 294 294 294 294 294 295 295 296 296 297 297 298 299 299 300 301 302 303 304 305 305 305 304 304 302 301 299 298 297 296 295 294 293 292 291 290 290 291 293 294 295 295 295 296 296 296 296 296 297 297 298 298 299 300 300 301 301 301 301 300 300 299 298 298 298 298 296 294 293
293 293 293 293 293 293 293 293 293 294 294 295 295 295 295 294 294 294 295 295 295 296 296 297 297 298 299 299 300 301 302 304 305 306 306 307 307 306 306 304 303 301 300 299 297 296 296 295 294 292 291 290 290 291 292 293 293 294 294 294 294 295 295 296 296 297 298 299 300 301 302 303 303 303 303 303 302 301 300 299 298 297 296 294 292 292
294 293 293 293 293 294 294 295 295 296 296 297 297 297 296 296 296 296 296 297 297 298 298 299 300 300 301 302 304 305 306 308 308 309 309 309 308 307 305 304 302 300 299 298 297 296 295 294 292 291 290 290 290 291 292 292 292 292 292 293 293 294 295 296 297 298 300 301 303 304 305 306 306 306 305 304 303 302 301 300 299 297 293 291 290 291
294 294 294 294 294 295 296 296 297 297 298 298 298 298 298 298 298 298 298 298 298 299 299 300 301 302 303 305 306 308 309 310 310 310 310 309 307 305 304 302 301 300 299 297 296 295 294 293 291 289 289 289 290 290 291 291 291 291 291 292 293 294 295 296 298 300 303 305 306 307 308 308 308 307 306 305 303 302 300 299 298 296 295 293 293 292
295 295 295 295 296 296 297 297 298 298 298 298 298 298 298 298 298 298 298 298 298 299 300 301 303 304 305 307 308 309 310 310 310 309 308 307 305 303 302 301 300 299 298 297 296 294 293 291 289 287 287 288 289 289 289 290 290 291 291 292 293 295 296 298 300 303 305 307 308 309 309 309 308 307 305 304 302 301 300 298 297 297 297 296 295 295
296 296 296 297 297 297 298 298 298 298 297 298 298 298 298 298 298 298 299 299 300 301 302 303 304 306 307 308 309 309 309 309 308 308 307 305 303 301 301 300 299 298 297 296 294 293 291 288 287 286 286 287 288 288 289 290 290 291 292 293 295 296 298 300 302 304 306 308 309 309 309 309 308 306 305 303 301 300 299 299 298 298 297 297 297 298
298 298 297 297 297 298 298 298 298 298 298 298 298 298 298 298 299 299 300 301 302 303 304 304 305 306 307 308 308 308 308 307 306 305 305 303 302 301 301 300 299 298 297 295 293 291 289 287 285 285 286 287 288 289 290 291 292 293 294 295 296 297 299 301 303 305 307 309 310 310 309 308 307 306 304 302 301 300 299 299 299 299 299 299 300 302
299 298 298 298 298 298 298 298 298 298 298 297 297 297 297 298 298 299 300 301 301 302 303 304 304 305 306 307 307 307 306 305 304 303 303 302 302 301 301 300 298 297 296 295 292 290 288 287 286 286 287 288 290 290 292 293 294 294 295 296 297 298 299 301 303 306 308 310 310 310 309 308 307 305 304 302 301 300 300 300 300 300 301 303 305 306
299 299 299 298 298 298 298 298 298 297 297 296 296 296 296 297 297 298 299 300 300 301 302 303 303 304 305 306 306 305 305 303 302 302 302 301 301 301 301 299 297 296 296 294 292 290 288 287 287 287 288 289 290 291 293 294 295 295 296 296 297 297 299 301 304 307 309 310 311 310 309 308 307 305 304 302 301 301 301 301 302 303 305 307 307 307
298 298 298 298 298 298 297 297 296 296 296 295 295 295 296 297 297 297 298 299 299 300 301 301 302 303 304 304 304 304 303 302 301 300 300 299 299 299 299 298 297 297 296 295 293 291 289 288 288 288 288 289 290 292 294 295 296 296 296 296 297 298 299 302 305 308 310 310 310 309 308 308 306 305 304 303 302 302 303 304 305 306 307 307 306 304
298 298 298 297 297 297 296 296 295 295 295 295 295 295 295 296 296 297 297 298 298 299 300 301 302 303 303 303 303 302 302 301 300 299 299 298 297 297 297 297 297 298 299 297 295 293 291 289 288 287 288 290 292 294 296 297 297 297 297 297 297 298 300 303 306 309 310 310 310 309 308 307 306 305 304 303 303 304 304 305 305 306 305 302 298 294
298 298 298 297 297 297 296 296 295 295 295 295 295 295 295 295 296 296 297 297 298 299 300 301 302 303 303 302 302 302 301 300 298 296 296 295 295 296 297 297 298 300 301 300 298 296 293 290 289 288 289 292 295 297 298 299 299 298 298 298 298 299 302 305 307 309 310 309 309 308 307 306 305 304 303 303 304 304 305 305 304 302 298 291 287 286
299 298 298 298 297 297 296 296 296 296 295 295 295 295 295 295 295 296 296 297 298 299 300 302 302 302 302 302 302 302 301 299 296 293 293 292 293 295 297 299 300 302 303 303 301 298 295 291 290 290 292 296 298 301 301 301 301 300 299 299 299 301 303 305 307 309 309 309 309 308 307 305 304 303 303 303 304 305 305 304 300 294 288 284 284 285
299 298 298 298 297 297 296 296 295 295 295 294 294 294 295 295 295 296 296 297 298 299 300 302 302 301 300 300 301 302 302 300 297 294 293 291 291 292 295 298 300 301 303 303 302 300 296 293 291 292 295 298 301 302 303 302 302 301 300 300 301 302 304 306 307 308 309 309 309 308 306 305 303 303 302 303 304 305 304 300 293 287 284 285 287 288
299 299 298 297 297 297 297 296 295 295 294 294 294 294 295 295 295 295 295 296 296 297 299 301 301 300 299 300 301 301 302 301 298 295 292 290 289 290 293 295 298 300 301 302 301 299 296 294 293 293 295 298 300 302 302 302 302 301 301 301 302 304 305 306 308 309 310 311 310 308 306 304 303 302 302 302 303 302 299 294 290 288 288 290 291 292
300 299 299 298 298 297 297 296 296 295 294 294 294 294 294 295 294 294 294 294 295 296 297 299 299 298 297 297 298 298 299 296 292 289 289 288 289 292 295 297 298 299 300 300 299 297 295 293 292 292 293 295 297 299 300 300 301 301 302 303 304 305 306 307 309 311 312 312 311 309 306 304 303 302 302 303 302 301 297 295 293 294 294 294 294 294
300 299 299 298 298 297 296 296 295 294 294 294 295 294 294 294 294 294 293 293 294 294 296 296 295 294 294 293 294 295 295 292 289 288 289 292 295 299 301 303 303 302 301 299 298 297 295 293 291 290 290 292 294 296 297 298 299 300 302 303 304 306 307 308 310 312 314 314 312 309 307 304 303 303 303 303 303 303 302 301 300 299 297 296 294 293
299 299 298 298 297 296 295 295 294 294 294 295 294 294 294 294 293 293 293 293 293 294 294 294 292 289 287 287 287 288 288 287 287 288 290 293 297 300 303 305 305 304 301 300 299 298 297 295 293 292 291 291 292 293 294 296 297 299 301 303 305 306 308 309 312 314 315 315 313 310 307 304 303 303 303 304 305 306 306 305 303 301 298 296 294 292
300 299 298 297 297 296 295 295 295 295 295 295 294 294 294 294 294 294 294 294 294 295 294 292 288 283 280 279 279 280 281 281 282 284 287 289 292 294 297 299 300 301 301 300 300 300 300 299 297 296 294 293 293 293 293 294 296 298 301 303 305 307 308 310 312 315 316 316 314 310 307 304 303 304 304 306 307 308 308 307 305 303 300 297 295 293
300 299 299 298 297 297 296 295 295 295 295 295 296 296 296 296 296 296 296 296 296 295 295 292 287 282 280 278 278 279 281 282 283 284 286 287 289 289 290 291 293 296 299 299 300 300 301 301 300 299 297 295 293 292 292 293 295 298 301 303 305 307 308 310 312 315 317 317 314 310 307 304 304 304 306 308 309 310 310 309 307 305 302 299 296 293
301 301 300 299 298 298 297 296 296 296 296 296 297 297 297 297 298 298 298 298 298 297 295 292 289 286 284 282 281 281 284 285 286 288 289 290 290 289 287 287 289 292 295 296 298 299 302 303 303 301 299 296 294 292 292 293 295 298 301 303 305 307 308 310 313 316 318 317 315 310 306 304 304 305 307 309 310 311 311 309 308 306 304 301 298 296
303 302 301 300 300 299 298 297 297 297 297 297 298 298 298 299 300 300 301 301 301 300 299 297 295 293 291 288 286 285 286 287 288 288 289 290 290 290 288 288 289 291 292 293 294 298 302 304 305 303 301 298 295 294 294 295 297 299 301 303 305 306 308 310 313 317 319 318 314 310 305 303 303 305 307 309 310 310 309 309 308 307 306 304 302 299
305 304 303 302 301 301 300 299 299 299 299 299 299 299 300 301 302 304 305 305 306 306 306 305 305 304 302 298 295 293 291 290 290 290 290 290 291 291 291 291 291 290 288 287 291 296 302 304 305 304 302 299 297 296 296 297 298 300 302 303 305 306 308 311 315 318 319 317 313 308 304 303 303 305 307 307 308 308 308 308 308 308 308 307 306 304
308 307 306 305 304 304 303 303 303 303 303 303 303 303 304 305 307 308 310 311 313 314 314 315 315 314 312 309 306 302 298 296 296 297 297 297 296 295 292 290 287 283 280 282 288 295 300 303 304 303 302 300 299 298 298 299 299 301 302 304 305 307 309 312 316 318 319 316 312 307 304 303 304 305 306 307 307 307 308 308 309 310 310 310 309 308
311 310 310 309 308 308 308 308 308 309 309 309 310 310 310 311 312 313 315 317 319 320 321 321 321 319 316 314 312 309 306 305 306 306 306 308 305 298 291 285 279 277 280 286 292 297 300 302 303 303 303 302 301 300 300 300 301 302 303 305 306 308 310 313 317 318 318 315 311 307 305 304 305 305 306 306 307 307 308 310 311 311 312 311 311 310
315 314 314 313 313 314 314 315 316 317 317 317 317 318 318 319 319 320 321 324 325 326 326 325 323 321 319 316 315 313 311 312 312 312 312 312 308 302 295 290 287 288 291 295 299 301 301 301 302 302 303 302 302 302 302 302 303 304 305 306 307 309 311 314 317 318 317 314 310 307 306 305 306 306 306 307 308 309 311 312 313 314 314 313 312 311
319 319 319 320 321 323 324 326 327 327 327 327 327 327 328 330 332 333 335 337 338 338 337 334 331 328 326 324 321 318 317 317 317 317 314 310 307 304 302 300 300 300 300 301 301 302 302 302 301 301 301 302 302 302 303 304 304 305 306 307 308 310 312 315 317 317 316 312 309 307 306 306 306 306 307 308 310 311 313 315 316 317 316 315 314 312
324 325 326 329 331 334 336 338 339 338 337 338 339 341 344 347 350 352 354 354 354 352 350 347 345 343 341 339 336 334 332 330 328 326 321 314 310 308 307 306 305 304 303 302 300 300 301 301 301 300 300 301 302 303 304 305 306 307 308 308 310 311 314 316 317 317 315 312 309 306 306 305 306 307 308 309 311 313 316 318 319 319 318 317 315 313
331 333 336 339 343 346 348 348 348 348 348 349 353 357 1 4 6 7 7 6 4 3 1 360 359 358 356 354 352 350 347 344 340 336 331 326 321 318 316 313 311 309 307 306 305 304 304 304 304 303 303 302 304 306 307 308 309 309 310 311 312 313 315 317 318 317 315 312 309 306 305 305 306 307 308 310 312 314 317 319 321 321 320 319 316 315
338 342 346 350 354 356 356 356 356 356 358 2 7 12 15 16 15 14 13 11 9 8 8 8 8 6 4 1 359 356 353 349 346 342 339 336 334 332 329 327 325 322 321 319 317 316 315 313 312 312 311 310 311 311 311 311 312 312 313 313 314 315 316 318 319 319 316 313 310 308 306 306 307 307 309 311 313 315 318 321 323 324 322 320 317 316
346 350 355 359 3 4 3 2 1 4 9 14 19 22 23 21 19 17 15 12 11 11 10 10 8 6 4 1 357 354 351 348 345 342 340 339 338 337 336 335 333 331 330 327 325 323 322 320 319 317 317 317 316 315 314 314 314 314 315 315 315 316 317 319 320 320 317 314 312 310 309 308 308 309 310 312 314 318 321 324 326 326 324 321 318 317
351 355 0 5 9 10 9 6 7 12 19 24 27 27 25 21 18 16 13 12 10 8 7 5 3 1 359 356 353 350 347 344 341 339 337 336 334 333 332 331 330 328 327 325 323 322 321 320 319 318 318 318 317 316 315 314 315 315 316 316 316 316 317 319 321 320 318 316 314 312 311 311 311 311 312 314 317 321 325 328 329 328 325 322 320 319
353 356 1 7 11 13 12 10 13 18 25 28 27 24 20 16 13 10 7 5 3 1 359 357 355 353 352 350 347 345 342 340 338 336 334 332 330 329 327 326 324 322 321 319 318 317 317 316 316 316 316 316 315 315 315 315 316 317 317 317 317 317 318 319 320 319 317 316 314 313 313 312 313 313 315 317 321 326 330 332 332 329 326 324 323 324
349 351 354 360 5 8 8 10 15 22 27 26 21 16 10 7 4 1 359 357 355 353 351 349 348 346 345 344 342 341 339 337 335 333 332 330 329 327 325 324 322 319 317 316 315 314 314 314 314 314 314 315 315 315 315 316 318 320 321 321 319 318 318 318 318 317 316 315 314 314 314 314 315 316 319 322 327 332 335 337 336 333 329 329 329 330
344 344 346 350 357 3 6 11 20 25 26 20 12 4 0 359 357 355 353 351 350 348 346 345 343 342 341 340 339 338 337 335 334 332 332 331 330 329 327 325 323 321 318 316 315 314 314 314 313 313 314 315 316 317 318 320 322 325 328 326 321 317 316 316 316 315 315 315 315 315 316 317 319 321 324 328 333 337 341 342 341 339 337 338 339 339
343 342 344 354 4 10 13 17 23 25 21 12 2 356 354 353 353 352 350 349 347 346 345 344 342 341 340 340 339 338 337 335 334 333 334 334 334 333 331 329 327 325 322 320 318 317 316 315 315 316 317 319 321 324 325 327 330 332 333 330 326 321 319 318 317 317 317 317 318 319 321 323 325 327 330 334 339 343 346 347 347 348 350 354 356 355
347 349 355 5 12 15 15 16 17 15 9 0 354 351 349 349 348 348 347 346 345 344 343 343 342 342 341 340 339 338 337 335 335 335 337 338 338 337 336 333 331 329 327 325 323 321 319 320 321 323 326 329 332 335 336 336 336 335 333 331 327 324 322 321 320 320 321 322 323 325 328 330 332 333 335 339 344 349 352 354 357 360 5 10 12 12
359 4 9 14 15 14 11 9 6 2 357 352 348 346 345 346 346 345 344 343 342 341 341 340 340 340 340 340 340 339 337 335 335 336 339 341 342 341 339 338 337 336 334 332 330 329 329 331 334 338 342 345 347 347 345 343 341 338 335 332 331 330 331 330 328 327 328 329 331 333 336 337 338 338 340 343 349 355 360 3 7 11 16 20 23 24
11 15 18 17 15 12 8 3 360 357 353 349 346 345 345 345 345 343 341 340 338 338 338 338 338 338 339 340 341 341 339 336 335 338 342 344 345 345 345 345 346 347 348 349 349 348 348 351 356 1 3 2 359 356 352 350 347 344 341 339 339 339 340 337 335 334 335 336 338 340 342 343 343 343 344 347 353 360 6 11 15 19 22 25 28 31
18 21 21 19 15 11 6 3 360 356 353 349 346 345 344 343 342 340 338 336 336 335 336 336 337 338 340 341 343 343 342 338 337 339 345 348 350 351 354 358 2 6 9 11 12 12 13 15 17 17 14 8 3 359 358 356 354 351 349 347 346 344 342 340 339 341 342 344 345 346 347 347 347 347 348 351 358 6 13 18 22 25 27 29 32 35
17 21 21 17 14 11 8 4 359 355 352 348 345 343 341 340 338 336 335 334 334 334 335 336 337 339 340 342 344 345 344 341 340 343 349 353 358 2 8 16 22 26 27 27 26 26 25 26 26 23 17 10 4 1 0 359 358 356 354 353 351 349 346 344 345 346 347 349 350 351 353 353 353 352 353 358 5 13 21 25 28 31 32 35 36 36
6 9 10 7 5 3 360 356 353 350 347 344 341 339 337 336 335 333 333 332 333 333 334 336 337 339 341 343 345 347 346 343 343 348 355 1 8 16 25 32 37 38 37 34 33 32 31 29 26 21 15 9 5 3 3 2 1 359 358 355 353 352 350 350 350 351 352 353 355 357 360 2 2 2 3 8 15 22 28 32 34 36 37 37 37 33
350 352 353 353 352 351 349 348 346 344 343 340 338 337 335 334 333 332 332 332 333 334 335 337 338 340 342 344 346 347 345 343 346 352 360 8 19 30 39 43 45 43 41 39 37 36 35 32 26 20 14 9 6 4 3 3 2 1 359 357 355 354 353 353 354 356 357 358 1 4 7 10 13 15 17 21 26 30 34 35 37 38 37 36 31 25
343 344 344 344 343 342 342 341 340 339 338 337 336 335 333 333 332 332 332 333 334 335 336 339 340 342 344 346 348 348 345 345 349 356 4 13 27 43 52 54 52 48 43 39 37 36 35 32 27 21 14 10 6 4 4 3 2 1 359 358 357 357 357 358 359 360 2 4 7 10 14 18 21 24 27 29 31 34 36 36 35 35 33 28 23 16
339 339 339 338 337 336 336 336 336 336 336 335 334 333 332 332 332 332 333 334 335 336 338 340 342 344 347 349 350 349 346 347 352 358 4 9 22 51 68 68 63 55 46 39 34 30 27 25 22 19 16 10 7 5 4 4 3 2 0 359 359 360 0 1 2 3 6 9 13 17 21 24 27 31 33 35 36 37 36 35 33 30 27 22 16 11
333 333 332 332 331 331 331 331 332 333 333 333 332 331 331 331 331 332 333 335 336 338 340 342 344 346 349 352 353 352 349 350 356 0 1 2 11 45 68 71 66 57 48 38 31 25 20 15 12 12 13 12 9 7 5 5 4 4 2 2 2 3 3 3 4 7 9 13 17 21 26 30 33 36 38 40 40 40 38 35 31 28 23 17 12 7